NOAA 16 DEB, 41377

Orbit data source: Space-Track

NOAA 16 DEB, 41377 is space debris in SSO originally from a launch on Thu, 21 Sep 2000 UTC launched from the Air Force Western Test Range (AFWTR). Debris objects in space refer to the collection of defunct objects orbiting the Earth. Examples of debris include non-operational satellites, rocket bodies, and fragments generated from explosions, collisions, or faulty payload assembly.

Loading next visibility...
Identifier
41377, 2000-055JW
Orbit
SSO
Country
Flag of USUS
Related business
Manufacturer
Unknown
Mission
Spacecraft
Bus & Motor
Unknown
Mass
Unknown
Launch date (UTC)
2000-09-21 (26 years ago)
Launch vehicle
Unknown
Launch site
Air Force Western Test Range (AFWTR)
Object type
Payload
Rocket body
Debris
Shape & HBR
Unknown shape, 0.1 m
Radar Cross Section
Medium (>0.1 m² and <1 m²)

Expand to show TLE details & history
Last TLE update: 16 hours ago

TLE from 16 hours ago
0 NOAA 16 DEB
1 41377U 00055JW  26255.55002501  .00002805  00000-0  10469-2 0  9997
2 41377  98.8340   9.2176 0021581 105.4079 254.9490 14.32596132552128
Epoch: 2026-09-12T13:12Z
TLE epoch observation values (Epoch: 2026-09-12T13:12:02.160Z)
Latitude
-0.00006°
Longitude
179.65119°
Altitude
790.039 km
Speed
7.457 km/s
True Right ascension
00h 36m 52s
True Declination
0° 00' 00"
Sunlit
Object was in full shadow at epoch
Visualization orbit readout
Latitude
Unknown
Longitude
Unknown
Altitude
Unknown
Speed
Unknown
Apparent Right ascension
Unknown
Apparent Declination
Unknown
Sunlit
N/A
Visualization observer readout
Local Sidereal Time
21:38:38
Azimuth
Unknown
Elevation
Unknown
Doppler factor
Unknown
Orbital elements
Apogee altitude
795.662 km
Perigee altitude
764.765 km
Semi-major axis
7,158.351 km
Eccentricity
0.00216
Inclination
98.834°
RAAN
9.2176°
Arg. of periapsis
105.4079°
True anomaly
254.71035°
Mean anomaly
254.949°
Eccentric anomaly
254.82966°
Mean motion
3.58363 °/min
Orbital period
100.46 mins
BSTAR
0.0010469
Loading maneuver chart data...
Computing Atmospheric mass density...
Loading historical data...
Loading historical data...
Loading historical data...
Loading historical data...
Loading historical data...
Loading historical data...
Loading historical data...

Documentation

Showing up to 5 results
|